RYR4697 GCRR-LEAL

Flight info

Callsign RYR4697
Flight time 2h 6m
Altitude 36000
Route KORAL UG5 SONSO DCT NIRAL UN871 OSDAM UM985 BARPA DCT XAVIR DCT PIMOS M445 ETURA T252 XEBAR M985 ASTRO
Aircraft B738/M-SDE2E3FGHIRWXY/LB1

Departure

Time 2026-04-29 19:45
Airport César Manrique-Lanzarote Airport (GCRR)

Arrival

Time 2026-04-29 21:51
Airport Alicante-Elche Miguel Hernández Airport (LEAL)
Time Latitude Longitude Altitude Speed Heading
2026-04-29 19:18 28.94966 -13.60777 48 ft 0 kts 296°
2026-04-29 19:18 28.94966 -13.60778 45 ft 0 kts 296°
2026-04-29 19:37 28.94956 -13.60754 49 ft 4 kts 295°
2026-04-29 19:38 28.94945 -13.60727 49 ft 2 kts 294°
2026-04-29 19:38 28.94937 -13.60703 47 ft 4 kts 271°
2026-04-29 19:38 28.94944 -13.60676 48 ft 4 kts 222°
2026-04-29 19:38 28.94966 -13.60661 49 ft 3 kts 206°
2026-04-29 19:39 28.94968 -13.60659 49 ft 0 kts 206°
2026-04-29 19:40 28.94962 -13.60662 49 ft 3 kts 206°
2026-04-29 19:41 28.94934 -13.60675 46 ft 6 kts 191°
2026-04-29 19:41 28.94903 -13.60650 49 ft 6 kts 124°
2026-04-29 19:41 28.94878 -13.60601 46 ft 8 kts 116°
2026-04-29 19:41 28.94834 -13.60570 47 ft 8 kts 192°
2026-04-29 19:42 28.94768 -13.60602 49 ft 13 kts 205°
2026-04-29 19:42 28.94707 -13.60637 48 ft 16 kts 206°
2026-04-29 19:42 28.94529 -13.60739 35 ft 26 kts 206°
2026-04-29 19:42 28.94360 -13.60836 29 ft 27 kts 206°
2026-04-29 19:43 28.94198 -13.60931 27 ft 25 kts 207°
2026-04-29 19:43 28.94045 -13.61019 29 ft 24 kts 207°
2026-04-29 19:43 28.93903 -13.61102 25 ft 23 kts 207°
2026-04-29 19:43 28.93765 -13.61181 25 ft 20 kts 207°
2026-04-29 19:44 28.93658 -13.61209 24 ft 16 kts 141°
2026-04-29 19:44 28.93612 -13.61097 22 ft 16 kts 92°
2026-04-29 19:44 28.93655 -13.61037 24 ft 10 kts 26°
2026-04-29 19:44 28.93880 -13.60907 26 ft 72 kts 27°
2026-04-29 19:45 28.94545 -13.60524 36 ft 139 kts 27°
2026-04-29 19:45 28.95544 -13.59951 308 ft 171 kts 28°
2026-04-29 19:45 28.96583 -13.59261 1128 ft 173 kts 40°
2026-04-29 19:45 28.97514 -13.58389 1986 ft 178 kts 40°
2026-04-29 19:46 28.98561 -13.57464 2352 ft 208 kts 38°
2026-04-29 19:46 28.99788 -13.56422 2673 ft 229 kts 37°
2026-04-29 19:46 29.01049 -13.55249 3190 ft 243 kts 45°
2026-04-29 19:46 29.02203 -13.53738 3670 ft 259 kts 48°
2026-04-29 19:47 29.03404 -13.52115 4497 ft 267 kts 48°
2026-04-29 19:47 29.04598 -13.50507 5377 ft 272 kts 48°
2026-04-29 19:47 29.05840 -13.48842 6173 ft 280 kts 48°
2026-04-29 19:47 29.07117 -13.47130 7024 ft 285 kts 49°
2026-04-29 19:48 29.08411 -13.45389 7855 ft 290 kts 49°
2026-04-29 19:48 29.09300 -13.44195 8408 ft 294 kts 49°
2026-04-29 19:48 29.11072 -13.41812 9490 ft 300 kts 49°
2026-04-29 19:48 29.12435 -13.39981 10284 ft 306 kts 49°
2026-04-29 19:49 29.13863 -13.38066 10609 ft 329 kts 49°
2026-04-29 19:49 29.15394 -13.36012 11030 ft 346 kts 49°
2026-04-29 19:49 29.16970 -13.33894 11705 ft 352 kts 49°
2026-04-29 19:49 29.18565 -13.31750 12503 ft 355 kts 49°
2026-04-29 19:50 29.20179 -13.29582 13219 ft 361 kts 49°
2026-04-29 19:50 29.21820 -13.27373 13899 ft 367 kts 49°
2026-04-29 19:50 29.23482 -13.25136 14599 ft 371 kts 49°
2026-04-29 19:50 29.25166 -13.22871 15289 ft 376 kts 49°
2026-04-29 19:51 29.26872 -13.20574 15952 ft 380 kts 49°
2026-04-29 19:51 29.28598 -13.18248 16576 ft 386 kts 49°
2026-04-29 19:51 29.30349 -13.15888 17188 ft 392 kts 49°
2026-04-29 19:51 29.32124 -13.13496 17825 ft 396 kts 49°
2026-04-29 19:52 29.33919 -13.11074 18436 ft 401 kts 49°
2026-04-29 19:52 29.35734 -13.08619 19041 ft 405 kts 49°
2026-04-29 19:52 29.37564 -13.06144 19636 ft 409 kts 49°
2026-04-29 19:52 29.39414 -13.03641 20194 ft 414 kts 49°
2026-04-29 19:53 29.41283 -13.01113 20778 ft 417 kts 49°
2026-04-29 19:53 29.43164 -12.98565 21353 ft 421 kts 49°
2026-04-29 19:53 29.45065 -12.95990 21893 ft 424 kts 49°
2026-04-29 19:53 29.46980 -12.93392 22414 ft 428 kts 49°
2026-04-29 19:54 29.50852 -12.88136 23432 ft 434 kts 49°
2026-04-29 19:54 29.52810 -12.85476 23901 ft 438 kts 49°
2026-04-29 19:54 29.54785 -12.82793 24356 ft 442 kts 49°
2026-04-29 19:55 29.56772 -12.80090 24808 ft 445 kts 49°
2026-04-29 19:55 29.58777 -12.77358 25254 ft 448 kts 49°
2026-04-29 19:55 29.60789 -12.74617 25724 ft 450 kts 49°
2026-04-29 19:55 29.62815 -12.71856 26147 ft 453 kts 49°
2026-04-29 19:56 29.64855 -12.69073 26542 ft 457 kts 49°
2026-04-29 19:56 29.66908 -12.66269 26911 ft 461 kts 49°
2026-04-29 19:56 29.68978 -12.63441 27320 ft 463 kts 49°
2026-04-29 19:56 29.71055 -12.60603 27719 ft 465 kts 50°
2026-04-29 19:57 29.73136 -12.57734 28078 ft 468 kts 51°
2026-04-29 19:57 29.74436 -12.55746 28294 ft 470 kts 54°
2026-04-29 19:57 29.76930 -12.51590 28737 ft 474 kts 56°
2026-04-29 19:57 29.78763 -12.48422 29066 ft 477 kts 57°
2026-04-29 19:58 29.79978 -12.46315 29283 ft 478 kts 56°
2026-04-29 19:58 29.81832 -12.43119 29607 ft 481 kts 56°
2026-04-29 19:58 29.83704 -12.39914 29919 ft 484 kts 56°
2026-04-29 19:58 29.85595 -12.36699 30223 ft 486 kts 56°
2026-04-29 19:59 29.87502 -12.33468 30535 ft 489 kts 56°
2026-04-29 19:59 29.89416 -12.30227 30857 ft 490 kts 56°
2026-04-29 19:59 29.91335 -12.26977 31177 ft 491 kts 56°
2026-04-29 19:59 29.93885 -12.22649 31533 ft 494 kts 56°
2026-04-29 20:00 29.95188 -12.20436 31705 ft 495 kts 56°
2026-04-29 20:00 29.97126 -12.17141 31990 ft 496 kts 56°
2026-04-29 20:00 29.99058 -12.13853 32363 ft 495 kts 56°
2026-04-29 20:00 30.01017 -12.10601 32760 ft 493 kts 52°
2026-04-29 20:01 30.03280 -12.07647 33111 ft 491 kts 44°
2026-04-29 20:01 30.05727 -12.04897 33447 ft 490 kts 43°
2026-04-29 20:01 30.08202 -12.02187 33746 ft 490 kts 43°
2026-04-29 20:01 30.10682 -11.99487 34070 ft 489 kts 43°
2026-04-29 20:02 30.13149 -11.96788 34402 ft 488 kts 43°
2026-04-29 20:02 30.15606 -11.94076 34681 ft 489 kts 43°
2026-04-29 20:02 30.18024 -11.91388 34916 ft 489 kts 43°
2026-04-29 20:02 30.19678 -11.89540 35067 ft 490 kts 43°
2026-04-29 20:03 30.22918 -11.85907 35421 ft 490 kts 43°
2026-04-29 20:03 30.25361 -11.83159 35687 ft 490 kts 43°
2026-04-29 20:03 30.27802 -11.80412 35938 ft 489 kts 43°
2026-04-29 20:03 30.30241 -11.77665 36160 ft 490 kts 43°
2026-04-29 20:04 30.32683 -11.74913 36371 ft 490 kts 43°
2026-04-29 20:04 30.35130 -11.72155 36574 ft 491 kts 43°
2026-04-29 20:04 30.37577 -11.69395 36836 ft 490 kts 43°
2026-04-29 20:04 30.40004 -11.66655 37220 ft 485 kts 43°
2026-04-29 20:05 30.42407 -11.63940 37595 ft 481 kts 43°
2026-04-29 20:05 30.44799 -11.61236 37838 ft 480 kts 43°
2026-04-29 20:05 30.47193 -11.58527 37939 ft 482 kts 43°
2026-04-29 20:05 30.49601 -11.55802 37950 ft 485 kts 43°
2026-04-29 20:06 30.54430 -11.50333 37965 ft 484 kts 43°
2026-04-29 20:06 30.59228 -11.44891 37955 ft 481 kts 43°
2026-04-29 20:07 30.63999 -11.39467 37963 ft 479 kts 43°
2026-04-29 20:07 30.68746 -11.34065 37963 ft 477 kts 43°
2026-04-29 20:08 30.72681 -11.29581 37960 ft 476 kts 43°
2026-04-29 20:08 30.78206 -11.23279 37959 ft 475 kts 43°
2026-04-29 20:09 30.82921 -11.17891 37964 ft 476 kts 43°
2026-04-29 20:09 30.87611 -11.12519 37972 ft 476 kts 43°
2026-04-29 20:10 30.92340 -11.07098 37956 ft 478 kts 43°
2026-04-29 20:10 30.97082 -11.01658 37954 ft 479 kts 43°
2026-04-29 20:11 31.01831 -10.96197 37951 ft 480 kts 43°
2026-04-29 20:11 31.06586 -10.90720 37951 ft 481 kts 43°
2026-04-29 20:12 31.11340 -10.85236 37952 ft 481 kts 43°
2026-04-29 20:12 31.16097 -10.79744 37953 ft 481 kts 43°
2026-04-29 20:13 31.20850 -10.74249 37948 ft 481 kts 43°
2026-04-29 20:13 31.25600 -10.68751 37947 ft 480 kts 43°
2026-04-29 20:14 31.30336 -10.63257 37953 ft 479 kts 43°
2026-04-29 20:14 31.35059 -10.57769 37968 ft 478 kts 43°
2026-04-29 20:15 31.39771 -10.52283 37955 ft 477 kts 43°
2026-04-29 20:15 31.44470 -10.46806 37978 ft 476 kts 43°
2026-04-29 20:16 31.49158 -10.41339 37980 ft 475 kts 43°
2026-04-29 20:16 31.53830 -10.35882 37982 ft 474 kts 43°
2026-04-29 20:17 31.58492 -10.30423 37994 ft 473 kts 43°
2026-04-29 20:17 31.63114 -10.25004 37990 ft 473 kts 43°
2026-04-29 20:18 31.67761 -10.19548 37990 ft 472 kts 43°
2026-04-29 20:18 31.72404 -10.14094 37991 ft 472 kts 43°
2026-04-29 20:19 31.77046 -10.08627 37993 ft 473 kts 43°
2026-04-29 20:19 31.81689 -10.03148 37993 ft 473 kts 43°
2026-04-29 20:20 31.86332 -9.97668 37989 ft 473 kts 43°
2026-04-29 20:20 31.90973 -9.92176 37992 ft 474 kts 43°
2026-04-29 20:21 31.95620 -9.86669 37989 ft 475 kts 43°
2026-04-29 20:21 32.00274 -9.81145 37993 ft 475 kts 43°
2026-04-29 20:22 32.04934 -9.75608 37989 ft 476 kts 43°
2026-04-29 20:22 32.09594 -9.70062 37991 ft 476 kts 43°
2026-04-29 20:23 32.14247 -9.64512 37998 ft 475 kts 43°
2026-04-29 20:23 32.18898 -9.58963 37989 ft 475 kts 43°
2026-04-29 20:24 32.23539 -9.53408 37986 ft 475 kts 43°
2026-04-29 20:24 32.28178 -9.47854 37990 ft 474 kts 43°
2026-04-29 20:25 32.32808 -9.42305 37991 ft 474 kts 43°
2026-04-29 20:25 32.37428 -9.36757 37990 ft 473 kts 43°
2026-04-29 20:26 32.42039 -9.31210 37988 ft 472 kts 43°
2026-04-29 20:26 32.46642 -9.25666 37990 ft 472 kts 43°
2026-04-29 20:27 32.50461 -9.21058 37983 ft 471 kts 43°
2026-04-29 20:27 32.55788 -9.14615 37985 ft 471 kts 43°
2026-04-29 20:28 32.60372 -9.09069 37981 ft 471 kts 43°
2026-04-29 20:28 32.64951 -9.03520 37983 ft 470 kts 43°
2026-04-29 20:29 32.69528 -8.97966 37983 ft 471 kts 43°
2026-04-29 20:29 32.74102 -8.92402 37983 ft 471 kts 43°
2026-04-29 20:30 32.78671 -8.86835 37986 ft 470 kts 43°
2026-04-29 20:30 32.83234 -8.81267 37980 ft 470 kts 43°
2026-04-29 20:31 32.87797 -8.75689 37981 ft 470 kts 44°
2026-04-29 20:31 32.92350 -8.70110 37984 ft 470 kts 43°
2026-04-29 20:32 32.96909 -8.64524 37981 ft 470 kts 44°
2026-04-29 20:32 33.00695 -8.59872 37988 ft 470 kts 43°
2026-04-29 20:33 33.06023 -8.53330 37992 ft 471 kts 44°
2026-04-29 20:33 33.10548 -8.47755 37989 ft 471 kts 44°
2026-04-29 20:34 33.15104 -8.42135 37997 ft 471 kts 44°
2026-04-29 20:34 33.19734 -8.36609 37983 ft 470 kts 37°
2026-04-29 20:35 33.25117 -8.32288 37994 ft 466 kts 28°
2026-04-29 20:35 33.30639 -8.28237 37991 ft 466 kts 28°
2026-04-29 20:36 33.36152 -8.24153 37995 ft 466 kts 29°
2026-04-29 20:36 33.41643 -8.20028 37987 ft 466 kts 29°
2026-04-29 20:37 33.47121 -8.15885 37990 ft 465 kts 29°
2026-04-29 20:37 33.52583 -8.11742 37990 ft 465 kts 29°
2026-04-29 20:38 33.58041 -8.07598 37991 ft 464 kts 29°
2026-04-29 20:38 33.63493 -8.03456 37988 ft 464 kts 29°
2026-04-29 20:39 33.68937 -7.99313 37992 ft 463 kts 29°
2026-04-29 20:39 33.74375 -7.95167 37992 ft 463 kts 29°
2026-04-29 20:40 33.79816 -7.91013 37992 ft 463 kts 29°
2026-04-29 20:40 33.85254 -7.86856 37992 ft 463 kts 29°
2026-04-29 20:41 33.90656 -7.82721 37989 ft 463 kts 29°
2026-04-29 20:41 33.96096 -7.78549 37995 ft 464 kts 29°
2026-04-29 20:42 34.01577 -7.74338 37990 ft 464 kts 29°
2026-04-29 20:42 34.06985 -7.70180 37992 ft 464 kts 29°
2026-04-29 20:43 34.12431 -7.65981 37991 ft 464 kts 29°
2026-04-29 20:43 34.17874 -7.61781 37990 ft 464 kts 29°
2026-04-29 20:44 34.23355 -7.57545 37988 ft 464 kts 29°
2026-04-29 20:44 34.28756 -7.53366 37994 ft 465 kts 29°
2026-04-29 20:45 34.34197 -7.49151 37989 ft 464 kts 29°
2026-04-29 20:45 34.39633 -7.44931 37991 ft 464 kts 29°
2026-04-29 20:46 34.45076 -7.40699 37995 ft 465 kts 29°
2026-04-29 20:46 34.50518 -7.36466 37987 ft 465 kts 30°
2026-04-29 20:47 34.55073 -7.32911 37991 ft 465 kts 29°
2026-04-29 20:47 34.60513 -7.28657 37992 ft 466 kts 30°
2026-04-29 20:48 34.65964 -7.24392 37995 ft 466 kts 30°
2026-04-29 20:48 34.71377 -7.20150 37989 ft 467 kts 29°
2026-04-29 20:49 34.76838 -7.15864 37992 ft 467 kts 29°
2026-04-29 20:49 34.82301 -7.11570 37991 ft 468 kts 30°
2026-04-29 20:50 34.87771 -7.07263 37994 ft 469 kts 30°
2026-04-29 20:50 34.93243 -7.02947 37988 ft 469 kts 30°
2026-04-29 20:51 34.98711 -6.98625 37992 ft 468 kts 30°
2026-04-29 20:51 35.04174 -6.94306 37991 ft 468 kts 30°
2026-04-29 20:52 35.09634 -6.89979 37991 ft 468 kts 30°
2026-04-29 20:52 35.15092 -6.85648 37989 ft 467 kts 29°
2026-04-29 20:53 35.20542 -6.81314 37992 ft 467 kts 30°
2026-04-29 20:53 35.25983 -6.76975 37990 ft 467 kts 29°
2026-04-29 20:54 35.33921 -6.70054 37991 ft 472 kts 43°
2026-04-29 20:55 35.37844 -6.63654 38000 ft 476 kts 59°
2026-04-29 20:55 35.41073 -6.56572 37990 ft 476 kts 59°
2026-04-29 20:56 35.44378 -6.49534 37988 ft 477 kts 58°
2026-04-29 20:56 35.47836 -6.42591 37992 ft 477 kts 57°
2026-04-29 20:57 35.51370 -6.35699 37994 ft 477 kts 57°
2026-04-29 20:57 35.54888 -6.28786 37990 ft 478 kts 57°
2026-04-29 20:58 35.58390 -6.21846 38003 ft 478 kts 57°
2026-04-29 20:58 35.61888 -6.14887 37990 ft 479 kts 57°
2026-04-29 20:59 35.65388 -6.07915 37992 ft 479 kts 57°
2026-04-29 20:59 35.68884 -6.00935 37989 ft 479 kts 57°
2026-04-29 21:00 35.72378 -5.93952 37993 ft 479 kts 57°
2026-04-29 21:00 35.75596 -5.86758 37997 ft 480 kts 64°
2026-04-29 21:01 35.78412 -5.79299 37994 ft 480 kts 64°
2026-04-29 21:01 35.81268 -5.71870 37994 ft 479 kts 63°
2026-04-29 21:02 35.84171 -5.64504 37990 ft 477 kts 63°
2026-04-29 21:02 35.87119 -5.57228 37996 ft 472 kts 62°
2026-04-29 21:03 35.90058 -5.50006 38002 ft 469 kts 62°
2026-04-29 21:03 35.92962 -5.42819 38004 ft 467 kts 63°
2026-04-29 21:04 35.95840 -5.35666 38016 ft 465 kts 63°
2026-04-29 21:04 35.98709 -5.28518 38023 ft 464 kts 63°
2026-04-29 21:05 36.01598 -5.21371 38012 ft 466 kts 62°
2026-04-29 21:05 36.04591 -5.14241 38014 ft 469 kts 62°
2026-04-29 21:06 36.07610 -5.07063 38019 ft 472 kts 62°
2026-04-29 21:06 36.10631 -4.99821 38013 ft 475 kts 62°
2026-04-29 21:07 36.13664 -4.92526 38006 ft 478 kts 61°
2026-04-29 21:07 36.17484 -4.85847 37993 ft 476 kts 44°
2026-04-29 21:08 36.22113 -4.79977 37987 ft 477 kts 43°
2026-04-29 21:08 36.26764 -4.74112 37991 ft 477 kts 43°
2026-04-29 21:09 36.31386 -4.68191 37988 ft 478 kts 44°
2026-04-29 21:09 36.35949 -4.62292 37985 ft 477 kts 44°
2026-04-29 21:10 36.40531 -4.56346 37988 ft 476 kts 44°
2026-04-29 21:10 36.45097 -4.50408 37990 ft 475 kts 44°
2026-04-29 21:11 36.49651 -4.44473 37989 ft 474 kts 44°
2026-04-29 21:11 36.54198 -4.38551 37991 ft 473 kts 44°
2026-04-29 21:12 36.58733 -4.32632 37989 ft 472 kts 44°
2026-04-29 21:12 36.63255 -4.26719 37990 ft 471 kts 44°
2026-04-29 21:13 36.67771 -4.20799 37994 ft 471 kts 44°
2026-04-29 21:13 36.72280 -4.14873 37991 ft 471 kts 44°
2026-04-29 21:14 36.76794 -4.08933 37991 ft 472 kts 44°
2026-04-29 21:14 36.81303 -4.02989 37995 ft 472 kts 44°
2026-04-29 21:15 36.85818 -3.97029 37987 ft 473 kts 44°
2026-04-29 21:15 36.90334 -3.91054 37996 ft 473 kts 44°
2026-04-29 21:16 36.94846 -3.85070 38014 ft 473 kts 44°
2026-04-29 21:16 36.99367 -3.79070 38018 ft 474 kts 44°
2026-04-29 21:17 37.03891 -3.73051 38019 ft 475 kts 44°
2026-04-29 21:17 37.08389 -3.67052 38023 ft 476 kts 44°
2026-04-29 21:18 37.12360 -3.60422 38013 ft 479 kts 62°
2026-04-29 21:18 37.15279 -3.52921 38021 ft 479 kts 64°
2026-04-29 21:19 37.18172 -3.45387 38024 ft 480 kts 63°
2026-04-29 21:19 37.21125 -3.37877 38020 ft 480 kts 63°
2026-04-29 21:20 37.24089 -3.30377 38015 ft 480 kts 63°
2026-04-29 21:20 37.25570 -3.26614 37836 ft 483 kts 63°
2026-04-29 21:20 37.27056 -3.22820 37384 ft 484 kts 63°
2026-04-29 21:20 37.28534 -3.19037 36870 ft 482 kts 63°
2026-04-29 21:21 37.30003 -3.15269 36511 ft 478 kts 63°
2026-04-29 21:21 37.31457 -3.11537 36129 ft 474 kts 63°
2026-04-29 21:21 37.32897 -3.07839 35743 ft 470 kts 63°
2026-04-29 21:21 37.34330 -3.04151 35344 ft 468 kts 63°
2026-04-29 21:22 37.35753 -3.00491 34964 ft 465 kts 63°
2026-04-29 21:22 37.37168 -2.96847 34583 ft 462 kts 64°
2026-04-29 21:22 37.38573 -2.93225 34194 ft 460 kts 64°
2026-04-29 21:22 37.39967 -2.89625 33803 ft 457 kts 64°
2026-04-29 21:23 37.41356 -2.86037 33421 ft 455 kts 63°
2026-04-29 21:23 37.42736 -2.82470 33030 ft 452 kts 63°
2026-04-29 21:23 37.44109 -2.78920 32657 ft 450 kts 63°
2026-04-29 21:23 37.45470 -2.75394 32284 ft 446 kts 63°
2026-04-29 21:24 37.46824 -2.71886 31906 ft 444 kts 63°
2026-04-29 21:24 37.48168 -2.68401 31536 ft 442 kts 63°
2026-04-29 21:24 37.49506 -2.64927 31166 ft 440 kts 63°
2026-04-29 21:24 37.50834 -2.61474 30793 ft 438 kts 63°
2026-04-29 21:25 37.52157 -2.58028 30420 ft 436 kts 63°
2026-04-29 21:25 37.53474 -2.54595 30051 ft 434 kts 63°
2026-04-29 21:25 37.54784 -2.51177 29676 ft 432 kts 63°
2026-04-29 21:25 37.56068 -2.47823 29310 ft 429 kts 63°
2026-04-29 21:26 37.57361 -2.44441 28927 ft 427 kts 63°
2026-04-29 21:26 37.58648 -2.41073 28545 ft 425 kts 63°
2026-04-29 21:26 37.59927 -2.37721 28151 ft 423 kts 64°
2026-04-29 21:26 37.61200 -2.34382 27775 ft 421 kts 64°
2026-04-29 21:27 37.62055 -2.32137 27527 ft 420 kts 64°
2026-04-29 21:27 37.63721 -2.27760 27101 ft 415 kts 64°
2026-04-29 21:27 37.64965 -2.24493 26750 ft 412 kts 64°
2026-04-29 21:27 37.66203 -2.21236 26376 ft 410 kts 64°
2026-04-29 21:28 37.67431 -2.18002 26018 ft 407 kts 64°
2026-04-29 21:28 37.68649 -2.14791 25647 ft 405 kts 64°
2026-04-29 21:28 37.69861 -2.11594 25284 ft 402 kts 64°
2026-04-29 21:28 37.71063 -2.08421 24914 ft 400 kts 64°
2026-04-29 21:29 37.72259 -2.05260 24545 ft 398 kts 64°
2026-04-29 21:29 37.73446 -2.02118 24180 ft 395 kts 64°
2026-04-29 21:29 37.74625 -1.98989 23814 ft 393 kts 64°
2026-04-29 21:29 37.75799 -1.95875 23458 ft 391 kts 64°
2026-04-29 21:30 37.76965 -1.92780 23078 ft 389 kts 64°
2026-04-29 21:30 37.78124 -1.89702 22718 ft 387 kts 65°
2026-04-29 21:30 37.79275 -1.86640 22360 ft 384 kts 65°
2026-04-29 21:30 37.80417 -1.83597 22004 ft 382 kts 65°
2026-04-29 21:31 37.81553 -1.80568 21647 ft 380 kts 65°
2026-04-29 21:31 37.82681 -1.77560 21297 ft 378 kts 65°
2026-04-29 21:31 37.83803 -1.74564 20954 ft 375 kts 65°
2026-04-29 21:31 37.84914 -1.71588 20602 ft 373 kts 65°
2026-04-29 21:32 37.86021 -1.68627 20253 ft 371 kts 65°
2026-04-29 21:32 37.87118 -1.65685 19902 ft 369 kts 65°
2026-04-29 21:32 37.88212 -1.62756 19555 ft 367 kts 65°
2026-04-29 21:32 37.89296 -1.59846 19209 ft 365 kts 65°
2026-04-29 21:33 37.90381 -1.56954 18854 ft 363 kts 63°
2026-04-29 21:33 37.91869 -1.54415 18604 ft 356 kts 42°
2026-04-29 21:33 37.93066 -1.53021 18449 ft 352 kts 41°
2026-04-29 21:33 37.95494 -1.50250 17996 ft 349 kts 41°
2026-04-29 21:34 37.96685 -1.48892 17789 ft 348 kts 41°
2026-04-29 21:34 37.98475 -1.46837 17456 ft 345 kts 41°
2026-04-29 21:34 38.00240 -1.44781 17105 ft 343 kts 41°
2026-04-29 21:34 38.02006 -1.42751 16771 ft 341 kts 41°
2026-04-29 21:35 38.03758 -1.40729 16432 ft 340 kts 42°
2026-04-29 21:35 38.05501 -1.38697 16102 ft 340 kts 42°
2026-04-29 21:35 38.07233 -1.36670 15761 ft 338 kts 42°
2026-04-29 21:35 38.08961 -1.34657 15433 ft 336 kts 42°
2026-04-29 21:36 38.10679 -1.32646 15102 ft 335 kts 42°
2026-04-29 21:36 38.12389 -1.30644 14765 ft 334 kts 42°
2026-04-29 21:36 38.14095 -1.28646 14442 ft 333 kts 42°
2026-04-29 21:36 38.15789 -1.26663 14108 ft 328 kts 43°
2026-04-29 21:37 38.17469 -1.24706 13783 ft 327 kts 41°
2026-04-29 21:37 38.19139 -1.22762 13467 ft 324 kts 42°
2026-04-29 21:37 38.20788 -1.20827 13141 ft 321 kts 43°
2026-04-29 21:37 38.22420 -1.18892 12833 ft 320 kts 43°
2026-04-29 21:38 38.24052 -1.16966 12430 ft 322 kts 43°
2026-04-29 21:38 38.25714 -1.15015 11930 ft 327 kts 43°
2026-04-29 21:38 38.27392 -1.13035 11435 ft 331 kts 45°
2026-04-29 21:38 38.28702 -1.10651 10977 ft 327 kts 69°
2026-04-29 21:39 38.29155 -1.07886 10546 ft 315 kts 93°
2026-04-29 21:39 38.28985 -1.05153 10146 ft 306 kts 99°
2026-04-29 21:39 38.28709 -1.02493 9726 ft 301 kts 101°
2026-04-29 21:39 38.28411 -0.99861 9402 ft 301 kts 101°
2026-04-29 21:40 38.28106 -0.97231 9068 ft 300 kts 101°
2026-04-29 21:40 38.27800 -0.94642 8748 ft 299 kts 101°
2026-04-29 21:40 38.27488 -0.92030 8432 ft 298 kts 101°
2026-04-29 21:40 38.27179 -0.89451 8159 ft 290 kts 101°
2026-04-29 21:41 38.26876 -0.86945 7900 ft 283 kts 101°
2026-04-29 21:41 38.26570 -0.84455 7604 ft 280 kts 101°
2026-04-29 21:41 38.26262 -0.82039 7334 ft 280 kts 101°
2026-04-29 21:41 38.25959 -0.79600 7059 ft 278 kts 101°
2026-04-29 21:42 38.25495 -0.77234 6760 ft 274 kts 118°
2026-04-29 21:42 38.24315 -0.75395 6484 ft 268 kts 146°
2026-04-29 21:42 38.22631 -0.74515 6239 ft 262 kts 174°
2026-04-29 21:42 38.20853 -0.74774 5997 ft 258 kts 202°
2026-04-29 21:43 38.19415 -0.76089 5759 ft 257 kts 230°
2026-04-29 21:43 38.18669 -0.78131 5515 ft 258 kts 259°
2026-04-29 21:43 38.18764 -0.80402 5286 ft 259 kts 283°
2026-04-29 21:43 38.19194 -0.82607 5056 ft 256 kts 281°
2026-04-29 21:44 38.19586 -0.84802 4838 ft 252 kts 283°
2026-04-29 21:44 38.20351 -0.86745 4592 ft 244 kts 312°
2026-04-29 21:44 38.21737 -0.87858 4414 ft 231 kts 345°
2026-04-29 21:44 38.23284 -0.87902 4253 ft 218 kts 11°
2026-04-29 21:45 38.24736 -0.87548 4101 ft 207 kts 11°
2026-04-29 21:45 38.26118 -0.87222 3996 ft 200 kts 11°
2026-04-29 21:45 38.27467 -0.86907 3919 ft 194 kts 11°
2026-04-29 21:45 38.28773 -0.86516 3880 ft 193 kts 25°
2026-04-29 21:46 38.29884 -0.85582 3868 ft 192 kts 44°
2026-04-29 21:46 38.30741 -0.84261 3850 ft 195 kts 59°
2026-04-29 21:46 38.31329 -0.82710 3806 ft 195 kts 73°
2026-04-29 21:46 38.31598 -0.81036 3711 ft 193 kts 91°
2026-04-29 21:47 38.31464 -0.79349 3528 ft 193 kts 98°
2026-04-29 21:47 38.31265 -0.77666 3282 ft 191 kts 100°
2026-04-29 21:47 38.31044 -0.76004 3022 ft 188 kts 100°
2026-04-29 21:47 38.30818 -0.74384 2769 ft 183 kts 100°
2026-04-29 21:48 38.30597 -0.72807 2529 ft 178 kts 100°
2026-04-29 21:48 38.30380 -0.71274 2299 ft 173 kts 100°
2026-04-29 21:48 38.30171 -0.69787 2071 ft 166 kts 100°
2026-04-29 21:48 38.29970 -0.68350 1860 ft 168 kts 100°
2026-04-29 21:49 38.29766 -0.66903 1670 ft 158 kts 100°
2026-04-29 21:49 38.29577 -0.65554 1436 ft 153 kts 100°
2026-04-29 21:49 38.29392 -0.64229 1245 ft 153 kts 100°
2026-04-29 21:49 38.29206 -0.62901 1018 ft 152 kts 100°
2026-04-29 21:50 38.29024 -0.61582 811 ft 151 kts 100°
2026-04-29 21:50 38.28841 -0.60274 625 ft 150 kts 100°
2026-04-29 21:50 38.28657 -0.58961 432 ft 151 kts 100°
2026-04-29 21:50 38.28472 -0.57637 216 ft 152 kts 100°
2026-04-29 21:51 38.28294 -0.56354 114 ft 136 kts 100°
2026-04-29 21:51 38.28225 -0.55626 100 ft 52 kts 76°
2026-04-29 21:51 38.28299 -0.55355 90 ft 10 kts 72°
2026-04-29 21:52 38.28328 -0.55267 88 ft 12 kts 60°
2026-04-29 21:52 38.28379 -0.55173 88 ft 11 kts 50°
2026-04-29 21:52 38.28436 -0.55179 89 ft 8 kts 308°
2026-04-29 21:52 38.28478 -0.55185 87 ft 5 kts 11°
2026-04-29 21:53 38.28508 -0.55178 87 ft 3 kts
2026-04-29 21:53 38.28516 -0.55176 87 ft 0 kts 10°